Terminal Aerodrome Forecast
Issued by NWS

Home | Current Version | Previous Version | Text Only | Print | Product List | Glossary Off
Versions: 1 2 3 4 5 6 7 8 9 10 11 12 13 14 15 16

000
FTUS43 KABR 291100
TAFATY
TAF
KATY 291127Z 2912/3012 VRB04KT P6SM OVC015
      TEMPO 2912/2914 FEW015
     FM291800 17006KT P6SM BKN250
     FM300800 VRB04KT P6SM OVC025=

USA.gov is the U.S. government's official web portal to all federal, state and local government web resources and services.